Regional Weather Roundup
Issued by NWS

Home | Current Version | Previous Version | Graphics & Text | Print | Product List | Glossary On
Versions: 1 2 3 4 5 6 7 8 9 10 11 12 13 14 15 16 17 18 19 20 21 22 23 24 25 26 27 28 29 30 31 32 33 34 35 36 37 38 39 40 41 42 43 44 45 46 47 48 49 50
000
ASUS45 KCYS 062310
RWRWY

WYOMING REGIONAL WEATHER ROUNDUP
NATIONAL WEATHER SERVICE CHEYENNE WY
500 PM MDT MON JUL 06 2015

NOTE:  "FAIR" INDICATES FEW OR NO CLOUDS BELOW 12,000 FEET
WITH NO SIGNIFICANT WEATHER AND/OR OBSTRUCTIONS TO VISIBILITY.

WYZ001-070000-
YELLOWSTONE NATIONAL PARK

CITY           SKY/WX    TMP DP  RH WIND       PRES   REMARKS
LK YELLOWSTONE   N/A     64  47  53 CALM      30.32S
W YELLOWSTONE  NOT AVBL

$$
WYZ002>013-054>058-071-098>099-070000-
NORTHERN WYOMING

CITY           SKY/WX    TMP DP  RH WIND       PRES   REMARKS
JACKSON        SUNNY     72  48  43 CALM      30.22F
CODY           PTSUNNY   68  50  52 SE5       30.21S
GREYBULL       FAIR      76  48  37 VRB3      30.14F
WORLAND        FAIR      75  52  44 N6        30.16F
SHERIDAN       PTSUNNY   67  55  65 VRB3      30.22F
BUFFALO        FAIR      63  53  70 S8        30.26F
GILLETTE       FAIR      64  52  64 E3        30.23F
HULETT         CLOUDY    64  52  63 N3        30.25F
NEWCASTLE      MOCLDY    68  52  56 S6        30.23F

$$
WYZ014>020-022>026-101>103-070000-
CENTRAL WYOMING

CITY           SKY/WX    TMP DP  RH WIND       PRES   REMARKS
BIG PINEY      NOT AVBL
PINEDALE       RAIN      55  52  88 S6        30.31S
DUBOIS         CLOUDY    57  50  77 SE10      30.29F
LANDER         CLOUDY    63  55  75 CALM      30.21F
RIVERTON       PTSUNNY   69  51  52 NE8       30.21F
CASPER         PTSUNNY   68  51  54 E13       30.24F
DOUGLAS        CLOUDY    61  54  77 SE9       30.27F

$$
WYZ021-027>030-104>119-070000-
SOUTHERN WYOMING

CITY           SKY/WX    TMP DP  RH WIND       PRES   REMARKS
EVANSTON       FAIR      73  44  35 W12       30.23F
KEMMERER       LGT RAIN  61  52  72 NW25G49   30.28R
FORT BRIDGER   MOCLDY    75  48  38 W15G21    30.26S
ROCK SPRINGS   FAIR      73  49  42 SE7       30.21F
DIXON          FAIR      78  49  35 N7        30.22F
RAWLINS        PTSUNNY   68  51  54 NE9       30.26F
SARATOGA       FAIR      72  50  46 N9        30.27F
LARAMIE        CLOUDY    59  52  77 E13       30.31F
CHEYENNE       CLOUDY    57  52  83 NE7       30.31F HAZE
TORRINGTON     CLOUDY    65  53  65 CALM      30.23F HAZE
PINE BLUFFS    CLOUDY    61  54  77 E9        30.28F HAZE

$$


USA.gov is the U.S. government's official web portal to all federal, state and local government web resources and services.